作者Axwell (Axwell)
看板Baseball
标题[分享] 今日大谷翔平
时间Sat Jun 3 10:48:46 2023
投手大谷
https://i.imgur.com/5pArmhV.jpg
IP H R ER BB SO HR ERA WHIP MAX
6.0 9 5 5 1 6 2 3.30 1.01 101 mph
球种分配:
Sweeper 38 (36%)
Sinker 29 (27%)
4-Seam Fastball 22 (21%)
Cutter 13 (12%)
Splitter 4 ( 4%)
Curveball 1 ( 1%)
Total 107(107-69)
保送下降到只有一次
但被尻了两支两分炮
第五局也因为被安打失一分
总计投了6局有五分责失
ERA上升到3.30
打者翔平
https://i.imgur.com/ERAGhlY.jpg
┌──┬─┬─┬─┬──┬─┬─┬─┬─┬─┬───┐
│ AVG│AB│ R│ H│ RBI│2B│3B│HR│BB│ K│ OPS │
├──┼─┼─┼─┼──┼─┼─┼─┼─┼─┼───┤
│.262│ 4│ 0│ 0│ 0 │ 0│ 0│ 0│ 1│ 2│0.859 │
└──┴─┴─┴─┴──┴─┴─┴─┴─┴─┴───┘
第一打席: FO
第二打席: K
第三打席: K
第四打席: BB
第五打席: FO
除了选到保送外其余皆没表现
又是无安打的一天
上一次投手大谷面对金莺(5/16)同样失五分,但天使打击大爆发
打者翔平同场差点完成完全打击,救了大谷的胜投,拿下本季第五胜
今天同样失五分
面对太空人先发Framber Valdez
天使有不少得分机会,打线却示范各种得不了分的方法
最终天使2:6败给太空人
投手大谷吞下本季第二败
5/16後到现在一胜难求
继续加油啦
= =
--
※ 发信站: 批踢踢实业坊(ptt.cc), 来自: 219.68.237.142 (台湾)
※ 文章网址: https://webptt.com/cn.aspx?n=bbs/Baseball/M.1685760528.A.9D8.html
※ 编辑: Axwell (219.68.237.142 台湾), 06/03/2023 10:49:11
1F:→ KWBilly: 凉 06/03 10:49
2F:推 Willie01: 快 06/03 10:49
3F:推 nanamiiwill: 好烂 06/03 10:49
4F:推 kikiyaxx: 加油啦QQ 06/03 10:49
5F:推 mosap: 今天不笑了 加油啦 06/03 10:49
6F:推 ParkChoa: 抠连 06/03 10:49
7F:→ pengjoker: 又烂又烂的一天 06/03 10:49
8F:推 bnbn0012300: 凉平QQ 06/03 10:49
9F:推 ggbi4zzz: 头大二刀流,两头空 06/03 10:49
10F:推 ljk476820: 蒸的不行了 翔平 06/03 10:49
11F:→ galleon2000: 笑不出来了 06/03 10:50
12F:推 polanco: 真惨 06/03 10:50
13F:推 pc152: 两边都烂的一天 06/03 10:50
14F:推 Getbackers: 谁说不用休息的? 06/03 10:50
15F:推 aya28666888: 内文 06/03 10:50
16F:推 neko198927: 不休一下吗QQ 06/03 10:50
17F:推 safyrose: 死不休 06/03 10:51
18F:推 ss3752: 今天大谷跟翔平都不行 06/03 10:51
19F:推 dick929: 投球的是翔平,打击的是大谷=烙赛 06/03 10:51
20F:推 paul31788: 该休息了 06/03 10:51
21F:→ cs0350679: 笑死 加油啦! 06/03 10:51
22F:推 mikilin23: 还好啦..还是比去年同期好 06/03 10:51
23F:推 mirror0103: 烂 06/03 10:51
24F:→ remsuki: QQ 06/03 10:51
25F:→ mikilin23: 继续努力 06/03 10:51
26F:→ FantasyChopi: 笑不出来了QQ… 06/03 10:51
27F:推 lepidoptera: 大谷跟翔平同一天烙赛 06/03 10:51
28F:推 WoYaoDa: 笑着笑着就哭了 06/03 10:51
29F:推 chihcsck: MVP越来越远了 06/03 10:51
30F:→ HisVol: 双刀流变双刀凉 06/03 10:51
31F:推 a1230215: 哭哭 06/03 10:52
32F:推 a2350221: 大谷加油啊! 06/03 10:52
33F:推 gc1319: 好凉 06/03 10:52
34F:推 Coffeeoftea: 跟大哥一起休算了:( 06/03 10:52
35F:推 zaza1128: 休息一下吧 06/03 10:53
36F:推 wowohqqq: 今天天使整队真的示范一百种得不了方法QQ 幸好没被完封 06/03 10:53
37F:→ certifi: 笑死 高中生水准 06/03 10:53
38F:推 RoastCorn: 惯老板再不给休啊 06/03 10:53
39F:推 leo79415: 越来越烂 06/03 10:53
40F:推 saffron27: 凉 06/03 10:53
41F:→ terry1043: 打出原形 06/03 10:53
42F:推 paul31788: 去年是越来越好 今年是越来越烂 要确定欸 06/03 10:53
43F:推 yokomata: 该休一次了 06/03 10:54
44F:推 laking: 还有机会啦 06/03 10:54
45F:推 myeunji: 各队经理:这场看完,大合约可以准备收回了 06/03 10:54
46F:推 henry1915: 投打都超凉 06/03 10:54
47F:→ payneblue: 今天伸卡配球明显上升 06/03 10:55
48F:→ justloadfun: 运气蛮好的 被打了9支安打只掉5分 06/03 10:55
49F:推 twtpcsilence: 大谷有投那麽多伸卡?! 感觉跟四缝位移没差很多啊 06/03 10:55
50F:推 meng99: 休一天吧 06/03 10:55
51F:→ WasJohnWall: 凉 06/03 10:55
52F:推 william80730: 还是那句话 指叉不找回来就是会被打 06/03 10:55
53F:推 a7696405: 球种是不是太多了,感觉搞死自己 06/03 10:55
54F:推 avcddd: 笑死 不如睡觉 war还比较高 06/03 10:55
55F:推 climax1309: 睡不够 06/03 10:56
56F:→ Axwell: 很多指叉被归类在伸卡 06/03 10:56
57F:推 HondaFIT: 该睡觉了 06/03 10:56
58F:→ Axwell: 检测球种的仪器有时候判断会有误 06/03 10:57
59F:→ william80730: 有4只内安啊 运气很差才对 06/03 10:57
60F:→ graphict: 投打全面笑死 06/03 10:57
61F:推 xxguaxx: 该休了吧QQ 06/03 10:57
62F:推 stanley86300: 好凉 06/03 10:57
63F:→ payneblue: 上一场先发投 也是运气差了点 06/03 10:57
64F:→ Minihil: 大谷炸裂 06/03 10:57
65F:推 JazMaHoJo: 自己配球 控球会漂 捕手接烂 守备又搞 06/03 10:58
66F:推 wwey2000j: 太鼓达人又不是运动家那种鸟队 本来就不好打 06/03 10:58
67F:推 abc5555990: 可以考虑放弃二刀流了 专心投手才有机会修好控球 06/03 10:58
68F:推 chenchen0611: 天使守备跟太鼓比起来不在同个层次 06/03 10:59
69F:→ visviva: 我难过...QQ 06/03 10:59
70F:→ chenchen0611: 加油吧 季赛还很长 06/03 10:59
71F:推 twtpcsilence: 了解 感谢Axwell大说明 06/03 10:59
72F:→ abc5555990: 改练变速取代指叉吧 MLB很多大投手都是变速达人 06/03 11:00
73F:推 JimK0511: 超鸟 06/03 11:00
74F:推 myeunji: 我觉得专心打者较好,投手能力开始走下坡了 06/03 11:00
75F:推 genesys570: 其实是太空人太强了 06/03 11:00
76F:推 hexokinase: 两把刀都没有的一天 06/03 11:00
77F:→ abc5555990: 变化轨迹跟Sweeper相反 搭配起来比指叉好 06/03 11:01
78F:推 CE15: 今天投球部分运气也不太好就是了.. 06/03 11:01
79F:推 mstar: 问就是 WBC 後遗症 06/03 11:01
80F:推 KazumiLin: 今天大谷核炸 06/03 11:01
81F:→ judtbyj: 加油!! 06/03 11:01
82F:→ mirrorlee: 投球能力没甚麽问题 一开始那两分单纯太空人优蛋打得好 06/03 11:03
83F:推 rickcoo: 核炸 06/03 11:03
84F:推 O10lOl01O: 太谷凉平 06/03 11:03
85F:推 loopdiuretic: 惨 06/03 11:03
86F:推 lhi0417: 哭脸男,笑死 06/03 11:03
87F:→ mirrorlee: 主要是配球模式太单调 没法根据打者马上做出调整 才会 06/03 11:03
88F:→ mirrorlee: 没注意到8棒刻意站远等内角滑球 搭配一个好捕手配球就 06/03 11:04
89F:→ chan324: 太空人阵容早就没之前强了 06/03 11:05
90F:→ mirrorlee: 解决了 但问题目前天使没有值得把配球权交出去的捕手 06/03 11:05
91F:推 hsgreent: 和Valdez有控球力的差别 同样6局相比 谷107:84 V 另外 06/03 11:06
92F:→ hsgreent: 打线差距 06/03 11:06
93F:推 sillyxsilly: 哀 跟藤浪差不了 06/03 11:06
94F:推 WasJohnWall: 对大谷来说,全垒打王跟汉克阿伦都比赛扬容易,21年 06/03 11:06
95F:→ WasJohnWall: 後面体力没掉的话都就有机会了 06/03 11:06
96F:→ RodrigueZ810: 我还觉得可能是两年前全垒打大赛的後遗症= = 06/03 11:06
97F:→ WasJohnWall: 赛扬真的要专心才行…… 06/03 11:07
98F:推 chan324: 好坏球太明显 06/03 11:08
99F:推 cplzgr: 这一个月投的很不顺,都会被抓到机会,虽然整体还不到很崩 06/03 11:08
100F:→ cplzgr: 的状态.. 06/03 11:08
101F:推 NowLoading: 拜托让他休息 06/03 11:08
102F:→ mirrorlee: 今年太空人打线很差的 联盟後段班 天使打线好多了 主要 06/03 11:09
103F:推 LCH41777: 凉了QQ 06/03 11:09
104F:→ mirrorlee: 还是太空人投手太强 伤了一狗票还是联盟前段班 06/03 11:10
105F:→ cplzgr: 对,还有今天太空人打者都站比较外侧没错,都在瞄准横滑 06/03 11:10
106F:→ cplzgr: 的样子 06/03 11:10
107F:推 samkobea1090: 今年回日本 明年来中职了 06/03 11:10
108F:→ cplzgr: 大谷有几球内角其实是会丢到打者的,但都站外侧才.. 06/03 11:11
109F:推 YoGlolz: 打击凉了 06/03 11:11
110F:推 chan324: 太空人打线 阿土伯年年退化 06/03 11:11
111F:推 a40558473: 笑死 翔平又睡 06/03 11:11
112F:→ WasJohnWall: 不过大谷投球都拉尾盘,打击反而是後面没力 06/03 11:12
113F:→ cplzgr: 今天大谷打击都被卡特薛了@@ 06/03 11:12
114F:推 yankees733: 今天两个一起烂 06/03 11:16
115F:推 Cliffx: 看破手脚 06/03 11:18
116F:推 MrCool5566: 惨死QQ 06/03 11:19
117F:→ LiebeLion: 累了 06/03 11:19
118F:推 asdfg5435: 完蛋 这季又没10胜了 06/03 11:20
119F:推 smalldra: 大谷凉 祥平凉 06/03 11:21
120F:推 revise: 笑死 再不休啊 06/03 11:21
121F:→ muxmux: 大谷是怎样拿到MVP的? 06/03 11:21
122F:推 qazzaq3977: 凉了 06/03 11:22
123F:推 JavaBass: 台湾记者神力 06/03 11:22
124F:推 yuyun0724: 该休一下了 06/03 11:23
125F:推 Axy8: 真的好惨烈 06/03 11:24
126F:推 myeunji: 扯记者影响的就真的有点硬扯了 06/03 11:24
127F:推 carwho: 笑死 06/03 11:24
128F:推 VoiDoll99: 太空人强 06/03 11:24
129F:推 gwawa0617: MVP! 06/03 11:25
130F:→ VoiDoll99: valdez真的很稳 06/03 11:25
131F:推 ger1871: 凉爆 06/03 11:26
132F:推 maxint: 无安打比赛 06/03 11:27
133F:推 VoiDoll99: 阿土伯目前还是蛮强的,只是今天这场打的烂 06/03 11:28
134F:推 abc5555990: 为什练好的大曲不太敢用了 06/03 11:31
135F:推 Kowdan: 两边都真的不大行啊… 06/03 11:31
136F:推 f9968106: 呜呜 06/03 11:32
137F:→ MaYawCiru: 两人都烂 06/03 11:36
138F:推 joewang85: 该休了 06/03 11:36
139F:推 ETJohn: 今天是又烂又烂的一天,哭啊 06/03 11:37
140F:推 Krishna: 超惨 双烂 今年MVP没有悬念了 06/03 11:38
141F:推 phix: 凉了 跌一千万 06/03 11:39
142F:推 Eloye: 大柠檬真的不好混,感觉今年尖谷凉平次数比往常多 06/03 11:40
143F:推 silentsky555: 下一次先发跳过吧 已经两个月没好好休息 06/03 11:40
144F:推 kalousu5685: 笑死 超凉的一天 06/03 11:40
145F:推 pantakill: 底谷躺平 06/03 11:40
146F:推 edhuang: 今天很不行 总之加油 06/03 11:42
147F:推 ilks2334: 这样还不休!? 06/03 11:42
148F:推 gmailsucks: 凉凉 06/03 11:46
149F:推 hihi29: 笑死 06/03 11:46
150F:推 westinsane: 该休了 06/03 11:48
151F:→ Adlem: 凉平在伤害打线 06/03 11:50
152F:推 kauw: 说好我两个大谷一个有出息呢? 06/03 11:50
153F:嘘 keler: 被记者带赛啦 06/03 11:51
154F:→ AhCheng: 坏了 06/03 11:51
155F:→ kauw: 连新球种控球整个走锺,胜投一直停滞不前了跟洋基cole比烂 06/03 11:52
156F:→ kauw: ?目前谁才是发球机? 06/03 11:52
157F:推 polanco: 楼上可以改寄生今天太空人队的先发啦 不要再讲Cole了 06/03 11:54
158F:推 kauw: 球种那麽多干嘛控球才是王道 06/03 11:56
159F:推 Jerry7766: 凉… 06/03 11:56
160F:推 kimicino: 加油 06/03 11:59
161F:→ ericinttu: 全队凉平 06/03 12:02
162F:推 jay60307: 虽然今天凉但还是天使五冠王... 06/03 12:02
163F:推 charlie50704: 0刀流77777 06/03 12:02
164F:推 a34567: 退休吧 很惨 06/03 12:05
165F:→ qrrd: 还好没买hami video 改支持法官好了 06/03 12:06
166F:推 www456789789: 凉 06/03 12:07
167F:推 tent24: 笑死 06/03 12:07
168F:推 charmingpink: 大谷跟翔平都不行了 06/03 12:08
169F:推 lin821: 高中生水准 06/03 12:08
170F:推 iWatch2: 凉凉 06/03 12:09
171F:推 AKLnokizuna: 不及格啊 大谷&翔平 06/03 12:11
172F:推 ccf0423: 挨两轰投手war没刷到,惨 06/03 12:14
173F:→ killua0209: 今天大谷只让太空人打者挥空5次,这对三振型投手不太 06/03 12:15
174F:→ killua0209: 正常 06/03 12:15
175F:推 northlight: 大谷/翔平加油 高低潮都会有的 06/03 12:18
176F:推 splong: 是不是被TVBS记者吓到了? 要记得去收惊啊 06/03 12:18
177F:推 flicker36: 该让凉平休了 教练 06/03 12:19
178F:推 JKjohnwick: 被记者吓到了吧 06/03 12:20
179F:推 myeunji: 实力不足就只好让别人帮他找各种理由了 06/03 12:24
180F:推 justdoit: 今年被炸烈率好高 06/03 12:26
182F:推 nowitzki0207: 根本过誉,要回日本了吧 06/03 12:31
183F:推 killua0209: 某位假谷粉终於露出真面目了 06/03 12:32
184F:推 ccl007: 一流球员会整理自己低潮时有那些因素 176就在球季中从来 06/03 12:35
185F:→ ccl007: 不看自己的新闻评论报导等 06/03 12:35
186F:嘘 r30385: 过誉 06/03 12:38
187F:推 ycsheaven: 好惨…两个都不及格 要被笑死了 06/03 12:38
188F:→ taiwanlaws: 凉 06/03 12:38
189F:推 ctes940008: 丸子 06/03 12:38
190F:推 Virness: 大谷凉亭 06/03 12:45
191F:推 angel991213: 还是相信大谷的调整能力 继续加油啦~ 06/03 12:49
192F:推 kissmy0926: 大谷翔平都烂 今天惨 06/03 12:55
193F:推 sustto: 凉 06/03 12:56
194F:推 s860382: QQ 06/03 12:57
195F:→ hydra7: 好烂…笑死 06/03 13:03
196F:推 kexfj: 又烂又烂的一天 06/03 13:09
197F:推 kenco: cole目前好一点 06/03 13:12
198F:→ freeview: 高中生毕业季到了 先坏一波 06/03 13:17
199F:推 tupacshkur: 笑死! 爆炸欸...好惨喔这ERA,不及格 06/03 13:35
200F:推 befly10015: 真的好惨 也没人能帮他调整 自己摸索也摸不出个啥 06/03 13:39
201F:推 jahen: 被某记者带赛了 06/03 13:41
202F:嘘 monkeyhurler: 爽啊 06/03 13:48
203F:嘘 liu1030: 恭喜法官MVP 06/03 13:53
204F:推 nowucme: 问就是休 06/03 13:55
205F:推 its0130: 二刀凉 06/03 13:56
206F:推 vltw5v: 哭 变0刀流了 06/03 14:17
207F:推 waitress: 不休息一下吗! 06/03 14:21
208F:→ ZIQQ001: 凉平 06/03 14:25
209F:推 foxey: 大谷和翔平成绩对调一下就舒服多了 06/03 14:32
210F:→ DaDaDaLa: mvp走远了吗 06/03 14:50
211F:推 ailio: 没有笑死也没有又强又烂了,只有烂QQ 06/03 15:26
212F:推 qaz0314: 凉平 06/03 16:07
213F:推 jasop: 今天不能笑死了 06/03 16:19
214F:推 ruka660101: 加油 06/03 16:20
215F:→ ollaynn: 今天是高中生 06/03 16:32
216F:推 jiaxie: 笑死被刺伤了 06/03 16:39
217F:推 yaguara: 今日炸裂。。投手的部分 06/03 16:57
218F:推 jympin: 感觉每年都同样剧本啊 无双开完 就烂一阵子 06/03 17:12
219F:推 kiss7938: 烂到不忍嘘 06/03 17:23
220F:→ dcdc: 指叉比例感觉太少了啊~ 06/03 20:32
221F:→ tsujishiori: 大谷跟翔平不合吗?为何翔平都是挑大谷先发的时候烙 06/03 21:27
222F:→ tsujishiori: 赛 06/03 21:27
223F:推 chargee: 早就说不要再刷了!今年就证明二刀流不行吧! 06/03 23:19